Location: PACMO
(41.3967°N, 90.3760°W)
Time: 11:40:56
(UTC-05:00)

Amateur Radio Satellites - All Passes

Search period start: 30 October 2014 11:10
Search period end: 31 October 2014 11:10
Location: PACMO, 41.3967°N, 90.3760°W

Satellite Date Start Highest point End Downlink Frequencies (MHz)
Time Altitude Azimuth
KITSAT 1 30 Oct 11:19:47 11:27:45 69° 116° (ESE) 11:35:46 435.175 FM
UKube-1 30 Oct 11:46:52 11:50:26 25° 293° (WNW) 11:53:59 145.840 MHz, 145.915 MHz
ZACube-1 30 Oct 11:53:05 11:57:07 45° 288° (WNW) 12:01:04 437.345 MHz
ISS 30 Oct 12:04:14 12:07:17 33° 334° (NNW) 12:10:21 145.800 FM
Oscar 19 30 Oct 12:16:59 12:19:35 14° 60° (ENE) 12:22:10 437.125 CW, 437.150 USB
Sapphire 30 Oct 12:23:22 12:28:49 75° 243° (WSW) 12:34:12 437.095 MHz 1200 baud AX-25 AFSK
Oscar 11 30 Oct 12:25:08 12:26:10 11° 299° (WNW) 12:27:11 145.825 FM, Beacon 2401.500 USB
SO-50 30 Oct 12:25:30 12:29:53 49° 308° (NW) 12:34:24 436.795 FM
HO-68 30 Oct 12:30:50 12:34:09 14° 310° (NW) 12:37:28 435.675 MHz FM
FUNcube-1 30 Oct 12:37:22 12:40:02 17° 295° (WNW) 12:42:39 145.950 - 145.970 MHz USB
PCSat 30 Oct 12:45:24 12:50:33 45° 248° (WSW) 12:55:40 145.825 MHz
AO-27 30 Oct 12:50:52 12:53:00 13° 58° (ENE) 12:55:08 436.795 MHz FM
Oscar 16 30 Oct 13:01:20 13:06:00 36° 68° (ENE) 13:10:40 437.025 USB, Beacon 2401.1428
JAS-1B 30 Oct 13:15:15 13:20:40 44° 69° (ENE) 13:26:03 435.800 - 435.900 CW/SSB
UOSAT-12 30 Oct 13:15:22 13:19:52 54° 118° (ESE) 13:24:29 437.025 FM, 437.400 FM
KITSAT 1 30 Oct 13:16:42 13:23:46 32° 317° (NW) 13:30:53 435.175 FM
Uribyol 2 30 Oct 13:32:22 13:36:53 31° 67° (ENE) 13:41:25 436.500 FM
ITAMSAT 1 30 Oct 13:39:53 13:44:31 34° 67° (ENE) 13:49:11 435.822 SSB
ISS 30 Oct 13:42:44 13:44:44 15° 354° (N) 13:46:44 145.800 FM
AO-Echo 30 Oct 13:45:15 13:50:00 46° 71° (ENE) 13:54:55 ?
Oscar 19 30 Oct 13:53:07 13:58:15 78° 257° (WSW) 14:03:25 437.125 CW, 437.150 USB
Saudisat 1A 30 Oct 13:59:00 14:02:19 20° 43° (NE) 14:05:38 436.775 MHz
AO-7 30 Oct 14:09:38 14:14:08 16° 47° (NE) 14:18:38 29.400 - 29.500 MHz
AO-27 30 Oct 14:26:30 14:31:43 90° 251° (WSW) 14:37:00 436.795 MHz FM
Gurwin Techsat 1B 30 Oct 14:35:51 14:41:03 58° 72° (ENE) 14:46:16 435.225 FM
Oscar 16 30 Oct 14:41:01 14:45:23 27° 265° (W) 14:49:45 437.025 USB, Beacon 2401.1428
TMSAT-1 30 Oct 14:43:03 14:48:09 50° 71° (ENE) 14:53:16 436.925 FM
UOSAT-12 30 Oct 14:56:43 15:00:21 22° 317° (NW) 15:04:02 437.025 FM, 437.400 FM
JAS-1B 30 Oct 15:07:11 15:11:39 23° 266° (W) 15:16:04 435.800 - 435.900 CW/SSB
Uribyol 2 30 Oct 15:11:34 15:16:16 34° 263° (W) 15:20:59 436.500 FM
KITSAT 1 30 Oct 15:19:04 15:22:16 13° 345° (NNW) 15:25:28 435.175 FM
ITAMSAT 1 30 Oct 15:19:26 15:23:59 30° 264° (W) 15:28:35 435.822 SSB
ISS 30 Oct 15:20:02 15:22:25 18° 14° (NNE) 15:24:48 145.800 FM
AO-Echo 30 Oct 15:25:20 15:29:01 21° 268° (W) 15:32:48 ?
Uosat F 30 Oct 15:36:44 15:40:41 24° 65° (ENE) 15:44:41 435.120 FM
Saudisat 1A 30 Oct 15:37:52 15:42:11 53° 242° (WSW) 15:46:29 436.775 MHz
AO-7 30 Oct 15:57:15 16:05:24 68° 67° (ENE) 16:13:37 29.400 - 29.500 MHz
AO-27 30 Oct 16:11:09 16:11:55 10° 272° (W) 16:12:42 436.795 MHz FM
Gurwin Techsat 1B 30 Oct 16:17:53 16:21:23 18° 269° (W) 16:24:54 435.225 FM
TMSAT-1 30 Oct 16:24:27 16:28:20 21° 267° (W) 16:32:15 436.925 FM
JAS-2 30 Oct 16:48:22 16:54:03 36° 64° (ENE) 17:00:24 435.800 - 435.900 CW/SSB, 435.910 FM
ISS 30 Oct 16:56:17 16:59:37 64° 33° (NNE) 17:02:56 145.800 FM
Uosat F 30 Oct 17:14:29 17:19:13 41° 261° (W) 17:24:00 435.120 FM
KITSAT 1 30 Oct 17:18:31 17:22:06 13° 17° (NNE) 17:25:40 435.175 FM
Hamsat 30 Oct 17:27:29 17:31:17 35° 71° (ENE) 17:35:06 145.90 MHz
OPAL 30 Oct 17:40:10 17:44:16 26° 97° (E) 17:48:20 ?
AO-7 30 Oct 17:52:07 17:58:45 27° 266° (W) 18:05:28 29.400 - 29.500 MHz
JAS-2 30 Oct 18:33:11 18:38:58 41° 265° (W) 18:45:31 435.800 - 435.900 CW/SSB, 435.910 FM
ISS 30 Oct 18:33:58 18:35:57 15° 229° (SW) 18:37:57 145.800 FM
AO-40 30 Oct 18:37:25 01:01:24 45° 181° (S) 04:03:57 Beacon 2401.320
SO-67 30 Oct 18:56:42 18:59:56 40° 74° (ENE) 19:03:12 435.3500 MHz FM
Hamsat 30 Oct 19:04:22 19:07:20 19° 267° (W) 19:10:19 145.90 MHz
KITSAT 1 30 Oct 19:13:05 19:20:24 36° 45° (NE) 19:27:40 435.175 FM
SO-50 30 Oct 19:16:53 19:20:43 23° 44° (NE) 19:24:34 436.795 FM
OPAL 30 Oct 19:18:41 19:23:13 37° 294° (WNW) 19:27:43 ?
RS-15 30 Oct 19:21:02 19:25:04 13° 95° (E) 19:29:04 29.354 - 29.394 USB, Beacon 29.352 USB
HO-68 30 Oct 19:24:11 19:28:54 19° 54° (NE) 19:33:36 435.675 MHz FM
STRAND 1 30 Oct 19:34:27 19:39:26 47° 99° (E) 19:44:22 ?
SO-67 30 Oct 20:32:19 20:33:07 11° 269° (W) 20:33:55 435.3500 MHz FM
Oscar 10/S400 30 Oct 20:36:11 21:12:25 52° 200° (SSW) 05:32:35 145.825 - 145.975 CW/USB, Beacon 145.810 USB
SO-50 30 Oct 20:56:50 21:01:36 56° 242° (WSW) 21:06:22 436.795 FM
UKube-1 30 Oct 21:06:09 21:09:49 27° 68° (ENE) 21:13:31 145.840 MHz, 145.915 MHz
KITSAT 1 30 Oct 21:08:18 21:16:13 61° 246° (WSW) 21:24:05 435.175 FM
HO-68 30 Oct 21:08:29 21:15:40 89° 254° (WSW) 21:22:54 435.675 MHz FM
STRAND 1 30 Oct 21:14:24 21:18:17 22° 296° (WNW) 21:22:09 ?
ZACube-1 30 Oct 21:15:05 21:17:29 14° 64° (ENE) 21:19:52 437.345 MHz
RS-15 30 Oct 21:24:17 21:35:07 67° 116° (ESE) 21:45:52 29.354 - 29.394 USB, Beacon 29.352 USB
MaSat-1 30 Oct 21:30:56 21:32:48 13° 106° (ESE) 21:34:37 437.345 MHz
Oscar 11 30 Oct 21:41:09 21:45:23 58° 74° (ENE) 21:49:38 145.825 FM, Beacon 2401.500 USB
UOSAT-12 30 Oct 21:44:55 21:49:31 48° 52° (NE) 21:54:01 437.025 FM, 437.400 FM
FUNcube-1 30 Oct 21:56:06 22:00:15 37° 71° (ENE) 22:04:20 145.950 - 145.970 MHz USB
UKube-1 30 Oct 22:42:13 22:45:56 27° 264° (W) 22:49:40 145.840 MHz, 145.915 MHz
ZACube-1 30 Oct 22:48:55 22:53:24 60° 259° (W) 22:57:50 437.345 MHz
HO-68 30 Oct 23:00:20 23:04:16 15° 271° (W) 23:08:13 435.675 MHz FM
MaSat-1 30 Oct 23:04:13 23:07:58 44° 298° (WNW) 23:11:21 437.345 MHz
Oscar 11 30 Oct 23:20:10 23:21:56 12° 270° (W) 23:23:41 145.825 FM, Beacon 2401.500 USB
UOSAT-12 30 Oct 23:25:53 23:29:18 20° 249° (WSW) 23:32:41 437.025 FM, 437.400 FM
FUNcube-1 30 Oct 23:33:15 23:36:42 21° 266° (W) 23:40:06 145.950 - 145.970 MHz USB
RS-15 30 Oct 23:38:02 23:48:08 41° 320° (NW) 23:58:20 29.354 - 29.394 USB, Beacon 29.352 USB
JAS-1B 31 Oct 00:58:56 01:02:40 14° 90° (E) 01:06:40 435.800 - 435.900 CW/SSB
Oscar 16 31 Oct 01:14:57 01:16:48 12° 89° (E) 01:18:40 437.025 USB, Beacon 2401.1428
Sapphire 31 Oct 01:25:11 01:27:41 13° 103° (ESE) 01:30:11 437.095 MHz 1200 baud AX-25 AFSK
PCSat 31 Oct 01:44:59 01:49:08 23° 107° (ESE) 01:53:18 145.825 MHz
AO-Echo 31 Oct 01:53:35 01:56:49 16° 90° (E) 02:00:01 ?
ITAMSAT 1 31 Oct 01:55:04 01:56:30 11° 88° (E) 01:57:56 435.822 SSB
RS-15 31 Oct 01:56:59 02:04:42 21° 354° (N) 02:12:32 29.354 - 29.394 USB, Beacon 29.352 USB
Oscar 19 31 Oct 02:04:52 02:09:36 37° 97° (E) 02:14:19 437.125 CW, 437.150 USB
AO-27 31 Oct 02:39:53 02:44:34 32° 96° (E) 02:49:11 436.795 MHz FM
JAS-1B 31 Oct 02:46:42 02:53:51 80° 104° (ESE) 03:02:26 435.800 - 435.900 CW/SSB
Oscar 16 31 Oct 02:51:36 02:56:44 79° 285° (WNW) 03:01:51 437.025 USB, Beacon 2401.1428
Gurwin Techsat 1B 31 Oct 02:52:41 02:56:51 23° 93° (E) 03:01:00 435.225 FM
TMSAT-1 31 Oct 02:59:41 03:03:29 20° 92° (E) 03:07:16 436.925 FM
Sapphire 31 Oct 03:04:56 03:10:20 81° 300° (WNW) 03:15:48 437.095 MHz 1200 baud AX-25 AFSK
Uribyol 2 31 Oct 03:23:34 03:28:48 86° 104° (ESE) 03:33:59 436.500 FM
PCSat 31 Oct 03:26:55 03:32:11 51° 304° (NW) 03:37:28 145.825 MHz
AO-Echo 31 Oct 03:30:44 03:36:01 65° 287° (WNW) 03:41:13 ?
ITAMSAT 1 31 Oct 03:31:24 03:36:39 86° 285° (WNW) 03:41:51 435.822 SSB
Oscar 19 31 Oct 03:44:31 03:48:47 27° 294° (WNW) 03:53:01 437.125 CW, 437.150 USB
AO-7 31 Oct 04:00:02 04:05:56 21° 92° (E) 04:11:48 29.400 - 29.500 MHz
RS-15 31 Oct 04:12:46 04:22:09 30° 29° (NNE) 04:31:45 29.354 - 29.394 USB, Beacon 29.352 USB
AO-27 31 Oct 04:19:25 04:24:00 32° 293° (WNW) 04:28:34 436.795 MHz FM
Gurwin Techsat 1B 31 Oct 04:31:58 04:37:00 45° 290° (WNW) 04:42:01 435.225 FM
Oscar 16 31 Oct 04:34:23 04:35:13 10° 303° (WNW) 04:36:03 437.025 USB, Beacon 2401.1428
TMSAT-1 31 Oct 04:38:33 04:43:42 52° 289° (WNW) 04:48:48 436.925 FM
JAS-1B 31 Oct 04:38:51 04:43:55 22° 299° (WNW) 04:49:36 435.800 - 435.900 CW/SSB
Sapphire 31 Oct 04:51:30 04:54:39 15° 320° (NW) 04:57:48 437.095 MHz 1200 baud AX-25 AFSK
OPAL 31 Oct 04:54:49 04:59:43 48° 69° (ENE) 05:04:35 ?
Uribyol 2 31 Oct 05:05:15 05:07:31 13° 302° (WNW) 05:09:47 436.500 FM
ITAMSAT 1 31 Oct 05:13:31 05:15:19 12° 302° (WNW) 05:17:06 435.822 SSB
PCSat 31 Oct 05:15:50 05:16:56 11° 326° (NW) 05:18:02 145.825 MHz
Uosat F 31 Oct 05:21:44 05:26:45 60° 101° (ESE) 05:31:42 435.120 FM
JAS-2 31 Oct 05:41:39 05:48:49 37° 94° (E) 05:55:42 435.800 - 435.900 CW/SSB, 435.910 FM
Saudisat 1A 31 Oct 05:44:13 05:48:15 37° 116° (ESE) 05:52:19 436.775 MHz
PANSAT 31 Oct 05:50:56 05:52:21 12° 177° (S) 05:53:46 not established
AO-7 31 Oct 05:51:12 05:59:33 82° 290° (WNW) 06:07:54 29.400 - 29.500 MHz
RS-15 31 Oct 06:25:14 06:36:29 81° 56° (ENE) 06:48:12 29.354 - 29.394 USB, Beacon 29.352 USB
OPAL 31 Oct 06:35:05 06:38:49 20° 264° (W) 06:42:33 ?
Hamsat 31 Oct 06:48:14 06:52:27 74° 101° (ESE) 06:56:42 145.90 MHz
STRAND 1 31 Oct 06:50:20 06:55:26 69° 73° (ENE) 07:00:35 ?
Uosat F 31 Oct 07:01:46 07:05:02 18° 298° (WNW) 07:08:17 435.120 FM
MaSat-1 31 Oct 07:14:10 07:15:39 14° 54° (NE) 07:17:05 437.345 MHz
Saudisat 1A 31 Oct 07:24:13 07:27:54 26° 314° (NW) 07:31:37 436.775 MHz
JAS-2 31 Oct 07:26:25 07:33:54 50° 292° (WNW) 07:41:12 435.800 - 435.900 CW/SSB, 435.910 FM
AO-7 31 Oct 07:45:38 07:51:08 20° 310° (NW) 07:56:38 29.400 - 29.500 MHz
SO-67 31 Oct 07:52:24 07:55:46 48° 99° (E) 07:59:06 435.3500 MHz FM
Hamsat 31 Oct 08:26:58 08:27:48 11° 298° (WNW) 08:28:38 145.90 MHz
STRAND 1 31 Oct 08:32:29 08:35:07 14° 270° (W) 08:37:45 ?
HO-68 31 Oct 08:38:02 08:42:23 17° 90° (E) 08:46:42 435.675 MHz FM
RS-15 31 Oct 08:38:53 08:47:41 28° 257° (WSW) 08:56:48 29.354 - 29.394 USB, Beacon 29.352 USB
MaSat-1 31 Oct 08:49:39 08:50:53 13° 254° (WSW) 08:52:05 437.345 MHz
JAS-2 31 Oct 09:15:25 09:17:07 11° 312° (NW) 09:18:48 435.800 - 435.900 CW/SSB, 435.910 FM
SO-67 31 Oct 09:28:03 09:28:17 10° 295° (WNW) 09:28:30 435.3500 MHz FM
Oscar 11 31 Oct 09:31:37 09:32:17 10° 89° (E) 09:32:58 145.825 FM, Beacon 2401.500 USB
ISS 31 Oct 09:39:11 09:41:37 19° 133° (SE) 09:44:03 145.800 FM
KITSAT 1 31 Oct 09:44:01 09:49:26 20° 102° (ESE) 09:54:50 435.175 FM
Sapphire 31 Oct 10:10:53 10:14:03 15° 40° (NE) 10:17:12 437.095 MHz 1200 baud AX-25 AFSK
HO-68 31 Oct 10:23:40 10:30:54 86° 287° (WNW) 10:38:05 435.675 MHz FM
UKube-1 31 Oct 10:29:31 10:33:46 48° 100° (E) 10:37:58 145.840 MHz, 145.915 MHz
PCSat 31 Oct 10:31:58 10:36:11 22° 46° (NE) 10:40:22 145.825 MHz
ZACube-1 31 Oct 10:38:40 10:42:07 24° 95° (E) 10:45:31 437.345 MHz
